Flag for Romania Weather past 2 weeks in Timișoara, Romania

Now
79 °F

Sunny.


Feels Like: 80 °F
Forecast: 70 / 93 °F
Wind: 6 mph from East

Location: Timisoara Airport

Current Time: Sep 1, 2015 at 9:49:20 AM

Latest Report: Sep 1, 2015 at 9:00 AM


Visibility: 10 mi

Pressure: 29.95 "Hg

Humidity: 58%

Dew point: 63 °F

Location of TimișoaraLocation

Historic Weather in Timișoara — Graph

°F

Timișoara temperature yesterday

Maximum temperature yesterday: 97 °F (at 3:00 PM)
Minimum temperature yesterday: 68 °F (at 7:00 AM)
Average temperature yesterday: 83 °F

Past Weeks' High & Low Weather Summary

 TemperatureHumidityPressure
High97 °F (Aug 30, 5:30 PM)100% (Aug 18, 12:00 AM)30.21 "Hg (Aug 18, 12:00 AM)
Low57 °F (Aug 24, 3:00 AM)16% (Aug 28, 4:30 PM)29.71 "Hg (Aug 17, 9:00 AM)
Average72 °F72%30.04 "Hg
* Reported Aug 17 9:00 AM — Sep 1 9:00 AM, Timișoara, Weather by CustomWeather, © 2015

Note: Actual official high and low records may vary slightly from our data, if they occured in-between our weather recording intervals... More about our weather records

Advertising

Timișoara weather history for previous 24 hours

 ConditionsComfort  
Time TempWeatherWind HumidityBarometerVisibility
9:00 AM
Tue, Sep 1
79 °FSunny.6 mph58%29.95 "Hg10 mi
8:30 AM75 °FSunny.7 mph65%29.95 "Hg10 mi
8:00 AM72 °FSunny.5 mph73%29.95 "Hg10 mi
6:30 AM70 °FClear.5 mph73%29.95 "Hg10 mi
6:00 AM70 °FClear.6 mph73%29.95 "Hg10 mi
5:30 AM68 °FPassing clouds.3 mph78%29.95 "HgN/A
5:00 AM68 °FClear.5 mph78%29.95 "Hg10 mi
4:30 AM68 °FClear.5 mph83%29.95 "Hg10 mi
4:00 AM70 °FClear.3 mph78%29.95 "Hg10 mi
3:30 AM72 °FClear.5 mph69%29.95 "Hg10 mi
3:00 AM72 °FClear.5 mph73%29.95 "Hg10 mi
2:30 AM72 °FClear.5 mph73%29.98 "Hg10 mi
2:00 AM72 °FClear.3 mph73%29.98 "Hg10 mi
12:30 AM73 °FClear.6 mph61%29.98 "Hg10 mi
12:00 AM75 °FClear.6 mph57%29.98 "Hg10 mi
11:30 PM
Mon, Aug 31
77 °FClear.6 mph54%29.98 "Hg10 mi
11:00 PM79 °FClear.6 mph54%29.98 "Hg10 mi
10:30 PM79 °FClear.5 mph54%29.98 "Hg10 mi
10:00 PM82 °FPassing clouds.5 mph45%29.98 "HgN/A
9:30 PM84 °FClear.1 mph45%29.98 "Hg10 mi
9:00 PM84 °FSunny.1 mph51%29.98 "Hg10 mi
8:30 PM88 °FSunny.1 mph40%29.95 "Hg10 mi
8:00 PM93 °FSunny.No wind32%29.95 "Hg10 mi
7:30 PM95 °FSunny.1 mph25%29.98 "Hg10 mi
7:00 PM97 °FSunny.2 mph23%29.98 "Hg10 mi
6:30 PM97 °FSunny.2 mph22%29.98 "Hg10 mi
6:00 PM97 °FSunny.2 mph23%29.98 "Hg10 mi
5:30 PM97 °FSunny.2 mph23%29.98 "Hg10 mi
5:00 PM97 °FPassing clouds.6 mph25%30.01 "HgN/A
4:30 PM97 °FSunny.8 mph23%30.01 "Hg10 mi
4:00 PM97 °FSunny.9 mph23%30.01 "Hg10 mi
3:30 PM97 °FPassing clouds.7 mph27%30.04 "HgN/A
3:00 PM97 °FSunny.5 mph27%30.04 "Hg10 mi
2:30 PM95 °FPassing clouds.5 mph32%30.07 "HgN/A
2:00 PM95 °FPassing clouds.6 mph32%30.07 "HgN/A
1:30 PM93 °FPassing clouds.7 mph34%30.07 "HgN/A
1:00 PM93 °FPassing clouds.7 mph36%30.07 "HgN/A
12:30 PM90 °FSunny.9 mph43%30.09 "Hg10 mi
12:00 PM88 °FPassing clouds.7 mph43%30.09 "HgN/A
11:30 AM88 °FSunny.8 mph43%30.09 "Hg10 mi
11:00 AM86 °FSunny.8 mph49%30.09 "Hg10 mi
10:30 AM84 °FSunny.8 mph48%30.09 "Hg10 mi
10:00 AM81 °FSunny.8 mph51%30.09 "Hg10 mi
9:30 AM79 °FSunny.9 mph58%30.09 "Hg10 mi
9:00 AM77 °FSunny.8 mph61%30.09 "Hg10 mi
Weather by CustomWeather, © 2015

See weather overviewHow to use our weather pages